Weather History for Chennai, India

Change the Weather History Date:

Monday, February 11, 2013

  Actual Average Record
Temperature  
Mean Temperature 80 °F -  
Max Temperature 88 °F 86 °F 91 °F (2000)
Min Temperature 72 °F 71 °F 67 °F (2014)
Cooling Degree Days 15    
Growing Degree Days 30 (Base 50)    
Moisture  
Dew Point 70 °F    
Average Humidity 71    
Maximum Humidity 89    
Minimum Humidity 46    
Precipitation  
Precipitation 0.00 in 0.03 in - ()
Sea Level Pressure  
Sea Level Pressure 29.90 in    
Wind  
Wind Speed 6 mph ()    
Max Wind Speed 17 mph    
Max Gust Speed -    
Visibility 3.6 miles    
Events      
Averages and records for this station are not official NWS values.
T = Trace of Precipitation, MM = Missing Value Source: Averaged Metar Reports

Daily Weather History Graph

Daily Weather History Graph

Search for Another Location

Airport:

Trip Planner

Search our weather history database for the weather conditions in past years. The results will help you decide how hot, cold, wet, or windy it might be!

Date:

Astronomy

Feb. 11, 2013 Rise Set
Actual Time 6:33 AM IST 6:13 PM IST
Civil Twilight 6:11 AM IST 6:35 PM IST
Nautical Twilight 5:46 AM IST 7:01 PM IST
Astronomical Twilight 5:21 AM IST 7:26 PM IST
Moon 7:00 AM IST (2/11) 7:15 PM IST (2/11)
Length of Visible Light 12h 24m
Length of Day
11h 40m
New Moon, 1% of the Moon is Illuminated
Feb 11
New Moon
Feb 18
First Quarter
Feb 26
Full
Mar 5
Last Quarter
Mar 12
New

Hourly Weather History & Observations

Time (IST) Temp. Heat Index Dew Point Humidity Pressure Visibility Wind Dir Wind Speed Gust Speed Precip Events Conditions
12:10 AM 77.0 °F - 69.8 °F 78% 29.89 in - NE 6.9 mph - N/A   Haze
12:40 AM 77.0 °F - 69.8 °F 78% 29.89 in - ENE 9.2 mph - N/A   Haze
1:10 AM 77.0 °F - 69.8 °F 78% 29.89 in 2.8 mi ENE 8.1 mph - N/A   Haze
1:40 AM 77.0 °F - 69.8 °F 78% 29.89 in 2.8 mi ENE 6.9 mph - N/A   Haze
2:10 AM 77.0 °F - 69.8 °F 78% 29.86 in 2.8 mi NE 3.5 mph - N/A   Haze
2:30 AM 77 °F - 69 °F 71% 29.90 in 2 mi Calm Calm - -   Scattered Clouds
2:40 AM 75.2 °F - 69.8 °F 83% 29.86 in 2.8 mi NNE 3.5 mph - N/A   Haze
3:10 AM 75.2 °F - 69.8 °F 83% 29.86 in 2.8 mi NNE 3.5 mph - N/A   Haze
3:40 AM 75.2 °F - 69.8 °F 83% 29.83 in 2.8 mi NNE 4.6 mph - N/A   Haze
4:10 AM 75.2 °F - 69.8 °F 83% 29.83 in 2.8 mi NNE 4.6 mph - N/A   Haze
4:40 AM 75.2 °F - 69.8 °F 83% 29.86 in 2.8 mi NNE 3.5 mph - N/A   Haze
5:10 AM 73.4 °F - 69.8 °F 88% 29.86 in 2.2 mi Calm Calm - N/A   Haze
5:30 AM 75 °F - 70 °F 79% 29.88 in 2 mi Calm Calm - -   Scattered Clouds
5:40 AM 73.4 °F - 69.8 °F 88% 29.86 in 2.2 mi Calm Calm - N/A   Haze
6:40 AM 73.4 °F - 69.8 °F 88% 29.89 in 1.1 mi Calm Calm - N/A   Scattered Clouds
7:40 AM 75.2 °F - 71.6 °F 89% 29.89 in 0.9 mi Calm Calm - N/A   Scattered Clouds
8:30 AM 81 °F - 70 °F 61% 29.95 in 2 mi NNE 2.3 mph - -   Haze
8:40 AM 78.8 °F - 71.6 °F 78% 29.92 in 1.6 mi NNW 3.5 mph - N/A   Haze
9:10 AM 80.6 °F 83.9 °F 69.8 °F 70% 29.95 in 2.5 mi NE 9.2 mph - N/A   Haze
10:10 AM 82.4 °F 86.3 °F 69.8 °F 66% 29.95 in 3.7 mi NE 11.5 mph - N/A   Scattered Clouds
10:40 AM 84.2 °F 88.4 °F 69.8 °F 62% 29.95 in 4.3 mi NE 11.5 mph - N/A   Scattered Clouds
11:10 AM 84.2 °F 88.4 °F 69.8 °F 62% 29.95 in 4.3 mi NE 11.5 mph - N/A   Scattered Clouds
11:30 AM 85 °F - 70 °F 51% 29.97 in 6 mi NE 4.6 mph - -   Mostly Cloudy
11:40 AM 84.2 °F 88.4 °F 69.8 °F 62% 29.92 in 4.3 mi NE 11.5 mph - N/A   Scattered Clouds
12:10 PM 86.0 °F 90.4 °F 69.8 °F 58% 29.92 in 4.3 mi ENE 13.8 mph - N/A   Scattered Clouds
12:40 PM 86.0 °F 90.4 °F 69.8 °F 58% 29.89 in 4.3 mi NE 17.3 mph - N/A   Mostly Cloudy
1:10 PM 86.0 °F 90.4 °F 69.8 °F 58% 29.89 in 4.3 mi ENE 16.1 mph - N/A   Mostly Cloudy
1:40 PM 86.0 °F 89.4 °F 68.0 °F 55% 29.89 in 5.0 mi NE 13.8 mph - N/A   Mostly Cloudy
2:10 PM 86.0 °F 89.4 °F 68.0 °F 55% 29.86 in 5.0 mi NE 13.8 mph - N/A   Mostly Cloudy
2:30 PM 86 °F - 68 °F 46% 29.90 in 6 mi NE 4.6 mph - -   Scattered Clouds
2:40 PM 86.0 °F 90.4 °F 69.8 °F 58% 29.86 in 5.0 mi NE 10.4 mph - N/A   Mostly Cloudy
3:10 PM 86.0 °F 89.4 °F 68.0 °F 55% 29.86 in 5.0 mi NE 11.5 mph - N/A   Mostly Cloudy
3:40 PM 86.0 °F 88.2 °F 66.2 °F 51% 29.86 in 5.0 mi NE 11.5 mph - N/A   Mostly Cloudy
4:10 PM 84.2 °F 88.4 °F 69.8 °F 62% 29.83 in 5.0 mi NE 9.2 mph - N/A   Mostly Cloudy
4:40 PM 82.4 °F 86.3 °F 69.8 °F 66% 29.86 in 4.3 mi NNE 11.5 mph - N/A   Mostly Cloudy
5:10 PM 82.4 °F 86.3 °F 69.8 °F 66% 29.86 in 4.3 mi NE 13.8 mph - N/A   Mostly Cloudy
5:30 PM 82 °F - 70 °F 59% 29.89 in 6 mi NNE 3.5 mph - -   Scattered Clouds
5:40 PM 80.6 °F 83.9 °F 69.8 °F 70% 29.86 in 4.3 mi NNE 12.7 mph - N/A   Mostly Cloudy
6:10 PM 80.6 °F 83.9 °F 69.8 °F 70% 29.86 in 3.7 mi NE 8.1 mph - N/A   Mostly Cloudy
6:40 PM 80.6 °F 83.9 °F 69.8 °F 70% 29.89 in 3.7 mi NE 10.4 mph - N/A   Mostly Cloudy
7:10 PM 80.6 °F 83.9 °F 69.8 °F 70% 29.89 in 3.7 mi NE 9.2 mph - N/A   Scattered Clouds
7:40 PM 78.8 °F - 71.6 °F 78% 29.89 in 3.7 mi NE 6.9 mph - N/A   Scattered Clouds
8:10 PM 78.8 °F - 71.6 °F 78% 29.92 in 3.7 mi ENE 9.2 mph - N/A   Scattered Clouds
8:30 PM 80 °F - 71 °F 69% 29.96 in 2 mi NE 2.3 mph - -   Partly Cloudy
8:40 PM 78.8 °F - 71.6 °F 78% 29.92 in 3.7 mi ENE 9.2 mph - N/A   Scattered Clouds
9:10 PM 78.8 °F - 71.6 °F 78% 29.92 in 3.7 mi NE 6.9 mph - N/A   Scattered Clouds
9:40 PM 78.8 °F - 69.8 °F 74% 29.95 in 3.7 mi NE 6.9 mph - N/A   Partly Cloudy
10:10 PM 77.0 °F - 69.8 °F 78% 29.95 in 3.7 mi NNE 4.6 mph - N/A   Partly Cloudy
10:40 PM 77.0 °F - 69.8 °F 78% 29.92 in 3.7 mi ENE 5.8 mph - N/A   Partly Cloudy
11:10 PM 77.0 °F - 69.8 °F 78% 29.92 in 3.7 mi NE 5.8 mph - N/A   Partly Cloudy
11:30 PM 78 °F - 71 °F 75% 29.96 in 2 mi NE 3.5 mph - -   Scattered Clouds
11:40 PM 77.0 °F - 69.8 °F 78% 29.92 in 3.7 mi NNE 3.5 mph - N/A   Partly Cloudy